MPEC 2006-L24 : 2006 LM

The following Minor Planet Electronic Circular may be linked-to from your own Web pages, but must not otherwise be redistributed electronically.


Read MPEC 2006-L23 Read MPEC 2006-L25


M.P.E.C. 2006-L24                                Issued 2006 June 3, 13:53 UT

     The Minor Planet Electronic Circulars contain information on unusual
         minor planets and routine data on comets.  They are published
   on behalf of Commission 20 of the International Astronomical Union by the
          Minor Planet Center, Smithsonian Astrophysical Observatory,
                          Cambridge, MA 02138, U.S.A.

                  Supported in part by the Brinson Foundation
                  Supported in part by the TABASGO Foundation
             Prepared using the Tamkin Foundation Computer Network

                              MPC@CFA.HARVARD.EDU
          URL http://cfa-www.harvard.edu/iau/mpc.html  ISSN 1523-6714

                                    2006 LM

Observations:
     K06L00M* C2006 06 03.35522 15 50 32.28 -08 54 52.5          17.9 V EL024703
     K06L00M  C2006 06 03.36163 15 50 35.55 -08 56 25.5          17.9 V EL024703
     K06L00M  C2006 06 03.37448 15 50 42.21 -08 59 31.4          17.7 V EL024703
     K06L00M  C2006 06 03.40949 15 51 00.86 -09 08 01.4          18.0 V EL024703
     K06L00M  C2006 06 03.41059 15 51 01.47 -09 08 16.9          17.9 V EL024703
     K06L00M  C2006 06 03.41168 15 51 02.01 -09 08 33.4          17.8 V EL024703
     K06L00M  C2006 06 03.41277 15 51 02.66 -09 08 48.6          17.5 V EL024703
     K06L00M  C2006 06 03.47514 15 52 08.76 -09 18 20.3          18.2 V EL024E12
     K06L00M  C2006 06 03.47554 15 52 08.97 -09 18 25.7          18.1 V EL024E12
     K06L00M  C2006 06 03.47596 15 52 09.15 -09 18 32.8          17.9 V EL024E12
     K06L00M  C2006 06 03.47638 15 52 09.40 -09 18 38.8          18.0 V EL024E12

Observer details:
703 Catalina Sky Survey.  Observer E. J. Christensen.  Measurers E. C. Beshore,
    E. J. Christensen, G. J. Garradd, A. R. Gibbs, A. D. Grauer, R. E. Hill,
    R. A. Kowalski, S. M. Larson, R. H. McNaught.  0.68-m Schmidt + CCD.
E12 Siding Spring Survey.  Observer G. J. Garradd.  Measurers E. C. Beshore,
    E. J. Christensen, G. J. Garradd, A. R. Gibbs, A. D. Grauer, R. E. Hill,
    R. A. Kowalski, S. M. Larson, R. H. McNaught.  0.5-m Uppsala Schmidt + CCD.

Orbital elements:
2006 LM                                                  Earth MOID = 0.0081 AU
Epoch 2006 Mar. 6.0 TT = JDT 2453800.5                  MPC
M 307.38642              (2000.0)            P               Q
n   0.43394921     Peri.  215.43783     +0.33539948     +0.93525791
a   1.7278662      Node    74.39431     -0.83498361     +0.35073179
e   0.4376469      Incl.    6.74592     -0.43624484     +0.04774777
P   2.27           H   25.0           G   0.15           U   9
Residuals in seconds of arc
060603 703  0.2-  0.3+    060603 703  0.2+  0.3+    060603 E12  0.2+  0.4+
060603 703  0.1-  0.2-    060603 703  0.6-  0.3-    060603 E12  0.4-  0.3-
060603 703  0.5+  0.2-    060603 703  0.1+  0.5+    060603 E12  0.0   0.2+
060603 703  0.1+  0.3-    060603 E12  0.3+  0.4-

Ephemeris:
2006 LM                  a,e,i = 1.73, 0.44, 7                   q = 0.9717
Date    TT    R. A. (2000) Decl.     Delta      r     Elong.  Phase     V
2006 06 04    15 58.41   -11 49.0    0.0212   1.035   164.3    15.4    17.6
2006 06 05    16 16.54   -18 28.3    0.0167   1.031   171.0     8.9    16.8
2006 06 06    16 50.45   -29 17.6    0.0128   1.027   173.2     6.7    16.1
2006 06 07    18 08.38   -45 47.5    0.0101   1.024   153.0    26.7    16.3
2006 06 08    21 14.75   -57 54.8    0.00963  1.020   123.5    56.0    17.0
2006 06 09    00 07.85   -50 46.6    0.0118   1.017    98.6    80.7    18.2
2006 06 10    01 17.82   -40 42.0    0.0154   1.014    83.7    95.5    19.4
2006 06 11    01 49.16   -33 45.9    0.0197   1.010    75.1   103.8    20.3
2006 06 12    02 06.33   -29 09.9    0.0244   1.007    70.0   108.7    21.0
2006 06 13    02 17.10   -25 58.7    0.0292   1.004    66.8   111.6    21.6
2006 06 14    02 24.49   -23 39.6    0.0341   1.002    64.7   113.5    22.1

Timothy B. Spahr             (C) Copyright 2006 MPC           M.P.E.C. 2006-L24

Read MPEC 2006-L23 Read MPEC 2006-L25


Our Web policy. Index to the CBAT/MPC/ICQ pages.

MPC

Valid HTML 4.01!